Weather in Zhuravlevo

Russia / Kemerovo Oblast     54°47′02″N   85°03′39″E
temp.,
°C
wind,
m/s
gust,
m/s
humid.,
%
clouds,
%
prec.,
mm/h
press.,
hPa
HPBL,
m
5 december, sun
sun501:00−9sw4109051 0.1 1032259
04:00−9ssw499154 0.0 1032221
07:00−8ssw3893100 0.1 1031190
10:00−8ssw41191100 0.0 1029303
13:00−6sw5149196 0.0 1027425
16:00−5sw51490100 0.0 1025506
19:00−4sw51290100 0.1 1024427
22:00−3ssw51392100 0.0 1023402
6 december, mon
mon601:00−3sw61391100 0.0 1022350
04:00−2ssw61491100 0.0 1021349
07:00−2ssw61392100 0.0 1020377
10:00−3ssw51390100 0.0 1021365
13:00−3sw51484100 0.0 1020400
16:00−4ssw398566 0.0 1019222
19:00−5ssw41288100 0.0 1018289
22:00−4sw61389100 0.0 1017415
7 december, tue
tue701:00−3sw61488100 0.0 1015543
04:00−2sw51495100 0.8 1014720
07:00−1sw61393100 1.7 1014848
10:00−2wsw61193100 0.4 1016842
13:00−3w5991100 0.6 1018748
16:00−6wnw599496 0.4 1022650
19:00−11wnw4994100 0.5 1027352
22:00−17w259998 0.1 103162
8 december, wed
wed801:00−22sw2210090 0.1 103416
04:00−24sw2210044 0.0 103516
07:00−25ssw2210013 0.0 103622
10:00−25ssw229913 0.0 103733
13:00−18sw24835 0.0 1037168
16:00−19sw239012 0.0 103762
19:00−23sw239477 0.0 104040
22:00−25sw229867 0.0 104224
9 december, thu
thu901:00−25sw229931 0.0 104420
04:00−25ssw229845 0.0 104518
07:00−26ssw229812 0.0 104619
10:00−25ssw229824 0.0 104733
13:00−19ssw349337 0.0 1046162
16:00−20ssw359411 0.0 1046107
19:00−22ssw389634 0.0 1046150
22:00−20ssw4139380 0.0 1044240